Tracking 18795 objects as of 22-August-2017
HD Live streaming from Space Station
objects crossing your sky now

BREEZE-M DEB

Track BREEZE-M DEB now!
10-day predictions


NORAD ID: 34259
Int'l Code: 2006-006CA
Perigee: 1,148.0 km
Apogee: 14,697.6 km
Inclination: 50.9 °
Period: 283.5 minutes
Semi major axis: 14293 km
RCS: 0.2413 m2 (medium)
Launch date: February 28, 2006
Source: Commonwealth of Independent States (former USSR) (CIS)
Launch site: TYURATAM MISSILE AND SPACE COMPLEX (TTMTR)

Note: This is SATELLITE DEBRIS
Your satellite tracking list
Your tracking list is empty





NASA's NSSDC Master Catalog

Two Line Element Set (TLE):
1 34259U 06006CA  17233.22689903 -.00000028  00000-0  00000+0 0  9990
2 34259  50.9248 315.8709 4739696 303.9197  19.7058  5.08020684213810
Source of the keplerian elements: AFSPC